Track GUARANISAT-1 (BIRDS-4) now! 10-day predictions GUARANISAT-1 (BIRDS-4) is classified as:
1 47931U 98067SH 22142.10224599 .00267780 00000-0 12252-2 0 9991 2 47931 51.6314 79.1718 0004391 120.9355 239.2079 15.82411931 67618